Regional Weather Roundup
Issued by NWS

Home | Current Version | Previous Version | Text Only | Print | Product List | Glossary On
Versions: 1 2 3 4 5 6 7 8 9 10 11 12 13 14 15 16 17 18 19 20 21 22 23 24 25 26 27 28 29 30 31 32 33 34 35 36 37 38 39 40 41 42 43 44 45 46 47 48 49 50
000
ASUS43 KMKX 231759
RWRWI

WISCONSIN REGIONAL WEATHER ROUNDUP
NATIONAL WEATHER SERVICE MILWAUKEE/SULLIVAN WI
100 PM CDT WED JUL 23 2014

NOTE: "FAIR" INDICATES FEW OR NO CLOUDS BELOW 12,000 FEET WITH NO
SIGNIFICANT WEATHER AND/OR OBSTRUCTIONS TO VISIBILITY.

WIZ001-002-006>008-014>016-023>028-231900-
NORTHWEST WISCONSIN

CITY           SKY/WX    TMP DP  RH WIND       PRES   REMARKS
SUPERIOR ARPT  MOSUNNY   73  58  59 NE9       30.24S
ASHLAND        MOSUNNY   72  58  61 NE8       30.25S
6HR MIN TEMP:  54; 6HR MAX TEMP:  73;

HAYWARD        MOSUNNY   74  51  44 N8        30.24S
6HR MIN TEMP:  52; 6HR MAX TEMP:  75;

SIREN          MOSUNNY   76  51  41 CALM      30.24S
RICE LAKE      MOSUNNY   75  54  47 N10       30.24S
6HR MIN TEMP:  57; 6HR MAX TEMP:  75;

LADYSMITH      MOSUNNY   75  53  44 N9        30.23F
EAU CLAIRE     NOT AVBL
MENOMONIE      PTCLDY    79  49  34 N7        30.22S
6HR MIN TEMP:  62; 6HR MAX TEMP:  79;

NEW RICHMOND   MOSUNNY   76  52  43 N5        30.24S
OSCEOLA        MOSUNNY   75  56  53 NW7       30.26S
$$

WIZ003>005-009-010-017-018-231900-
NORTH CENTRAL WISCONSIN

CITY           SKY/WX    TMP DP  RH WIND       PRES   REMARKS
WOODRUFF       CLOUDY    72  55  55 N6        30.25S
RHINELANDER    CLOUDY    67  51  56 VRB5      30.25S
6HR MIN TEMP:  56; 6HR MAX TEMP:  67;

EAGLE RIVER    CLOUDY    65  49  56 CALM      30.25S
LAND O LAKES   PTSUNNY   67  51  57 NW5       30.26S
PHILLIPS       MOSUNNY   72  54  54 N8        30.22F
6HR MIN TEMP:  55; 6HR MAX TEMP:  72;

TOMAHAWK       PTSUNNY   68  55  62 NE6       30.24F
MEDFORD        PTSUNNY   71  56  59 N6        30.23F
MERRILL        PTSUNNY   70  55  60 N8        30.22F
$$

WIZ029-030-035-036-043>047-231900-
CENTRAL WISCONSIN

CITY           SKY/WX    TMP DP  RH WIND       PRES   REMARKS
WAUSAU         MOSUNNY   74  54  49 N8        30.20F
6HR MIN TEMP:  59; 6HR MAX TEMP:  74; 6HR PCP: TRACE;

MOSINEE        PTSUNNY   72  54  53 N12       30.23S
MARSHFIELD     MOSUNNY   75  55  49 VRB7      30.21F
STEVENS POINT  MOSUNNY   73  52  48 N10       30.21F
WAUPACA        PTSUNNY   77  49  37 NE8       30.20F
6HR MIN TEMP:  59; 6HR MAX TEMP:  78;

WAUTOMA        NOT AVBL
WISC RAPIDS    MOSUNNY   77  53  43 N15       30.22F
6HR MIN TEMP:  61; 6HR MAX TEMP:  77;

CAMP DOUGLAS   NOT AVBL
$$

WIZ011>013-019>022-031-037>040-048>050-231900-
NORTHEAST WISCONSIN

CITY           SKY/WX    TMP DP  RH WIND       PRES   REMARKS
ANTIGO         PTSUNNY   70  52  53 N10G16    30.23F
STURGEON BAY   SUNNY     68  48  49 N13       30.21S
6HR MIN TEMP:  61; 6HR MAX TEMP:  68;

GREEN BAY      MOSUNNY   74  53  48 NE12      30.19F
6HR MIN TEMP:  61; 6HR MAX TEMP:  75;

MANITOWOC      NOT AVBL
APPLETON       PTSUNNY   72  50  46 N14G22    30.20F
CLINTONVILLE   CLOUDY    73  48  40 N8        30.20S
OSHKOSH        MOSUNNY   75  51  43 N16       30.18F
6HR MIN TEMP:  62; 6HR MAX TEMP:  75;

$$

WIZ032>034-041-042-053>061-231900-
SOUTHWEST WISCONSIN

CITY           SKY/WX    TMP DP  RH WIND       PRES   REMARKS
LA CROSSE      MOSUNNY   78  57  48 W9        30.21S
6HR MIN TEMP:  66; 6HR MAX TEMP:  80;

SPARTA         MOSUNNY   76  53  45 CALM      30.22S
VIROQUA        FAIR      75  57  53 N8        30.22F
BOSCOBEL       MOSUNNY   81  56  42 MISG      30.20F HX  81
6HR MIN TEMP:  62; 6HR MAX TEMP:  81;

PRAIRIE DU CHI MOSUNNY   76  52  41 NE9       30.20F
PLATTEVILLE    FAIR      75  54  47 NE10      30.21S
$$

WIZ056-057-062-063-064-067-068-231900-
SOUTH CENTRAL WISCONSIN

CITY           SKY/WX    TMP DP  RH WIND       PRES   REMARKS
BARABOO/DELLS  PTSUNNY   74  52  45 N8        30.20F
LONE ROCK      NOT AVBL
WATERTOWN      MOSUNNY   74  54  50 N10G18    30.18F
MADISON        PTSUNNY   78  54  43 N15       30.19F
6HR MIN TEMP:  62; 6HR MAX TEMP:  78;

MIDDLETON      FAIR      77  52  41 NE14      30.20F
MONROE         PTSUNNY   73  55  53 N13       30.18F
JANESVILLE     MOSUNNY   73  52  46 N13G18    30.18S
$$

WIZ051-052-058>065-066-070>072-231900-
SOUTHEAST WISCONSIN

CITY           SKY/WX    TMP DP  RH WIND       PRES   REMARKS
MILWAUKEE      MOSUNNY   68  54  60 NE16      30.18F
6HR MIN TEMP:  62; 6HR MAX TEMP:  69;

WAUKESHA       PTSUNNY   72  50  46 NE12      30.18F
MILWAUKEE/TIMM MOSUNNY   72  48  43 NE14G20   30.19S
RACINE         SUNNY     67  54  63 NE17G23   30.20S
6HR MIN TEMP:  61; 6HR MAX TEMP:  69;

BURLINGTON     MOSUNNY   72  55  54 E10       30.17F
KENOSHA        SUNNY     71  50  47 N12G21    30.18S
6HR MIN TEMP:  62; 6HR MAX TEMP:  71;

FOND DU LAC    SUNNY     74  51  44 NE14      30.20F
6HR MIN TEMP:  61; 6HR MAX TEMP:  74;

SHEBOYGAN      SUNNY     66  54  65 NE15      30.19S
6HR MIN TEMP:  61; 6HR MAX TEMP:  71;

WEST BEND      PTSUNNY   72  50  46 N10       30.17F
JUNEAU         SUNNY     72  47  41 NE12      30.20F
$$

LSZ147-162-231900-
LAKE SUPERIOR

STATION/POSITION TIME  TEMP    WIND        PRES    WAVE
                       AIR SEA DIR/SP/G            HT/PER
                 (UTC) (F)     (DEG/KT/KT) (MB)    (FT/S)
$$

LMZ867-665-643>646-231900-
LAKE MICHIGAN

STATION/POSITION TIME  TEMP    WIND        PRES    WAVE
                       AIR SEA DIR/SP/G            HT/PER
                 (UTC) (F)     (DEG/KT/KT) (MB)    (FT/S)
$$

TC  - TEMPERATURE IN CELSIUS
VSB - VISIBILITY IN STATUTE MILES
WCI - WIND CHILL INDEX
HX  - HEAT INDEX




USA.gov is the U.S. government's official web portal to all federal, state and local government web resources and services.